User: anonymous
Location: Caltech
(34.1382°N, 118.1253°W)
Time: 17:28:46
(UTC-07:00)
Language:

SPOT 1/Viking Rocket - Orbit

View from above orbital plane
View from above orbital plane
View from above satellite
View from above satellite

Ground track
Ground track

The orbit data is extracted from the following two-line orbital elements,

1 16615U 86019C   14292.20529601  .00000426  00000-0  17769-3 0  5212
2 16615 098.7435 344.2537 0011943 027.3285 014.0139 14.31323908500434
Epoch (UTC): 19 October 2014 04:55:37
Eccentricity: 0.0011943
inclination: 98.7435°
perigee height: 779 km
apogee height: 796 km
right ascension of ascending node: 344.2537°
argument of perigee: 27.3285°
revolutions per day: 14.31323908
mean anomaly at epoch: 14.0139°
orbit number at epoch: 50043

The dashed part of the orbit path shows where the satellite is in the earth's shadow,  

DLR